Hourly Weather Bolshoe Ermakovo

Today, 31 July, Saturday

Time Temperature Precipitation Wind Pressure Humidity
00:00 +21°C° 0 mm 3 mps 744 mmHg 69%
01:00 +21°C° 0.4 mm 3 mps 744 mmHg 75%
02:00 +20°C° 0.4 mm 3 mps 744 mmHg 82%
03:00 +20°C° 0 mm 3 mps 744 mmHg 90%
04:00 +20°C° 0.3 mm 3 mps 744 mmHg 88%
05:00 +20°C° 0.3 mm 3 mps 744 mmHg 87%
06:00 +21°C° 0.3 mm 2 mps 744 mmHg 86%
07:00 +22°C° 0 mm 3 mps 744 mmHg 78%
08:00 +25°C° 0 mm 4 mps 744 mmHg 71%
09:00 +26°C° 0 mm 5 mps 744 mmHg 64%
10:00 +28°C° 0 mm 5 mps 744 mmHg 58%
11:00 +29°C° 0 mm 5 mps 744 mmHg 51%
12:00 +32°C° 0 mm 6 mps 744 mmHg 45%
13:00 +30°C° 0 mm 6 mps 744 mmHg 48%
14:00 +30°C° 0 mm 6 mps 744 mmHg 51%
15:00 +30°C° 0 mm 6 mps 744 mmHg 52%
16:00 +29°C° 0 mm 6 mps 745 mmHg 52%
17:00 +29°C° 0 mm 5 mps 745 mmHg 52%
18:00 +28°C° 0 mm 4 mps 745 mmHg 51%
19:00 +27°C° 0 mm 3 mps 745 mmHg 58%
20:00 +25°C° 0 mm 3 mps 746 mmHg 65%
21:00 +23°C° 0 mm 2 mps 746 mmHg 72%
22:00 +23°C° 0 mm 2 mps 747 mmHg 74%
23:00 +21°C° 0 mm 2 mps 747 mmHg 76%

Tomorrow, 1 August, Sunday

Time Temperature Precipitation Wind Pressure Humidity
00:00 +21°C° 0 mm 2 mps 747 mmHg 78%
01:00 +20°C° 0 mm 2 mps 747 mmHg 80%
02:00 +20°C° 0 mm 2 mps 747 mmHg 82%
03:00 +19°C° 0 mm 2 mps 748 mmHg 84%
04:00 +20°C° 0 mm 2 mps 748 mmHg 78%
05:00 +21°C° 0 mm 2 mps 748 mmHg 72%
06:00 +23°C° 0 mm 2 mps 749 mmHg 66%
07:00 +25°C° 0 mm 3 mps 749 mmHg 58%
08:00 +27°C° 0 mm 4 mps 749 mmHg 50%
09:00 +30°C° 0 mm 5 mps 749 mmHg 41%
10:00 +32°C° 0 mm 6 mps 749 mmHg 38%
11:00 +33°C° 0 mm 6 mps 749 mmHg 34%
12:00 +34°C° 0 mm 6 mps 749 mmHg 31%
13:00 +34°C° 0 mm 6 mps 749 mmHg 30%
14:00 +34°C° 0 mm 6 mps 749 mmHg 29%
15:00 +34°C° 0 mm 6 mps 749 mmHg 28%
16:00 +32°C° 0 mm 5 mps 749 mmHg 31%
17:00 +30°C° 0 mm 4 mps 749 mmHg 34%
18:00 +29°C° 0 mm 3 mps 749 mmHg 38%
19:00 +27°C° 0 mm 2 mps 749 mmHg 42%
20:00 +25°C° 0 mm 2 mps 749 mmHg 46%
21:00 +23°C° 0 mm 1 mps 750 mmHg 51%
22:00 +23°C° 0 mm 1 mps 750 mmHg 51%
23:00 +22°C° 0 mm 1 mps 750 mmHg 52%

Day after tomorrow, 2 August, Monday

Time Temperature Precipitation Wind Pressure Humidity
00:00 +22°C° 0 mm 1 mps 750 mmHg 53%
01:00 +22°C° 0 mm 1 mps 750 mmHg 54%
02:00 +21°C° 0 mm 1 mps 750 mmHg 56%
03:00 +21°C° 0 mm 1 mps 750 mmHg 57%
04:00 +22°C° 0 mm 1 mps 750 mmHg 56%
05:00 +23°C° 0 mm 1 mps 751 mmHg 54%
06:00 +24°C° 0 mm 1 mps 751 mmHg 53%
07:00 +26°C° 0 mm 2 mps 751 mmHg 48%
08:00 +28°C° 0 mm 2 mps 751 mmHg 43%
09:00 +31°C° 0 mm 2 mps 751 mmHg 38%
10:00 +32°C° 0 mm 2 mps 751 mmHg 33%
11:00 +34°C° 0 mm 3 mps 750 mmHg 29%
12:00 +35°C° 0 mm 3 mps 750 mmHg 25%
13:00 +36°C° 0 mm 3 mps 750 mmHg 24%
14:00 +36°C° 0 mm 3 mps 750 mmHg 23%
15:00 +37°C° 0 mm 3 mps 749 mmHg 23%
16:00 +36°C° 0 mm 2 mps 749 mmHg 26%
17:00 +35°C° 0 mm 2 mps 749 mmHg 30%
18:00 +33°C° 0 mm 1 mps 749 mmHg 33%
19:00 +31°C° 0 mm 1 mps 749 mmHg 37%
20:00 +29°C° 0 mm 1 mps 749 mmHg 41%
21:00 +26°C° 0 mm 1 mps 749 mmHg 45%
22:00 +26°C° 0 mm 1 mps 749 mmHg 47%
23:00 +26°C° 0 mm 2 mps 749 mmHg 49%

3 August, Tuesday

Time Temperature Precipitation Wind Pressure Humidity
00:00 +25°C° 0 mm 2 mps 748 mmHg 51%
01:00 +25°C° 0 mm 2 mps 748 mmHg 50%
02:00 +25°C° 0 mm 2 mps 748 mmHg 48%
03:00 +25°C° 0 mm 3 mps 748 mmHg 47%
04:00 +26°C° 0 mm 3 mps 748 mmHg 46%
05:00 +27°C° 0 mm 2 mps 748 mmHg 45%
06:00 +27°C° 0 mm 2 mps 748 mmHg 44%
07:00 +30°C° 0 mm 3 mps 748 mmHg 37%
08:00 +34°C° 0 mm 4 mps 748 mmHg 31%
09:00 +37°C° 0 mm 5 mps 748 mmHg 24%
10:00 +39°C° 0 mm 5 mps 747 mmHg 22%
11:00 +40°C° 0 mm 5 mps 747 mmHg 19%
12:00 +41°C° 0 mm 5 mps 747 mmHg 17%
13:00 +41°C° 0 mm 5 mps 746 mmHg 17%
14:00 +41°C° 0 mm 5 mps 746 mmHg 17%
15:00 +41°C° 0 mm 5 mps 746 mmHg 17%
16:00 +38°C° 0 mm 4 mps 746 mmHg 20%
17:00 +37°C° 0 mm 4 mps 746 mmHg 24%
18:00 +35°C° 0 mm 4 mps 746 mmHg 28%
19:00 +31°C° 0 mm 3 mps 746 mmHg 39%
20:00 +28°C° 0 mm 2 mps 747 mmHg 50%
21:00 +25°C° 0 mm 2 mps 748 mmHg 61%
22:00 +25°C° 0.1 mm 2 mps 748 mmHg 61%
23:00 +24°C° 0.1 mm 1 mps 747 mmHg 62%

4 August, Wednesday

Time Temperature Precipitation Wind Pressure Humidity
00:00 +24°C° 0.1 mm 1 mps 747 mmHg 63%
01:00 +23°C° 0 mm 1 mps 748 mmHg 65%
02:00 +23°C° 0 mm 1 mps 748 mmHg 67%
03:00 +22°C° 0 mm 1 mps 748 mmHg 69%
04:00 +23°C° 0 mm 2 mps 748 mmHg 68%
05:00 +23°C° 0 mm 2 mps 748 mmHg 67%
06:00 +24°C° 0 mm 2 mps 748 mmHg 66%
07:00 +26°C° 0 mm 3 mps 748 mmHg 60%
08:00 +27°C° 0 mm 3 mps 748 mmHg 54%
09:00 +29°C° 0 mm 4 mps 749 mmHg 48%
10:00 +29°C° 0 mm 3 mps 749 mmHg 47%
11:00 +29°C° 0 mm 3 mps 748 mmHg 46%
12:00 +29°C° 0 mm 3 mps 748 mmHg 45%
13:00 +29°C° 0 mm 2 mps 748 mmHg 43%
14:00 +30°C° 0 mm 2 mps 748 mmHg 41%
15:00 +30°C° 0 mm 2 mps 748 mmHg 39%
16:00 +29°C° 0 mm 3 mps 748 mmHg 43%
17:00 +29°C° 0 mm 4 mps 748 mmHg 46%
18:00 +28°C° 0 mm 4 mps 748 mmHg 50%
19:00 +26°C° 0.1 mm 4 mps 748 mmHg 60%
20:00 +23°C° 0.1 mm 4 mps 748 mmHg 70%
21:00 +21°C° 0.1 mm 3 mps 749 mmHg 80%
22:00 +20°C° 0.2 mm 3 mps 749 mmHg 83%
23:00 +19°C° 0.2 mm 3 mps 749 mmHg 85%

5 August, Thursday

Time Temperature Precipitation Wind Pressure Humidity
00:00 +18°C° 0.2 mm 2 mps 749 mmHg 88%
01:00 +18°C° 0 mm 2 mps 749 mmHg 88%
02:00 +17°C° 0 mm 2 mps 749 mmHg 88%
03:00 +17°C° 0 mm 2 mps 749 mmHg 88%
04:00 +18°C° 0 mm 2 mps 750 mmHg 85%
05:00 +18°C° 0 mm 2 mps 750 mmHg 83%
06:00 +19°C° 0 mm 2 mps 750 mmHg 80%
07:00 +21°C° 0 mm 3 mps 750 mmHg 68%
08:00 +25°C° 0 mm 4 mps 750 mmHg 57%
09:00 +27°C° 0 mm 4 mps 750 mmHg 45%
10:00 +28°C° 0 mm 5 mps 750 mmHg 40%
11:00 +29°C° 0 mm 5 mps 750 mmHg 35%
12:00 +30°C° 0 mm 5 mps 750 mmHg 30%
13:00 +30°C° 0 mm 6 mps 750 mmHg 29%
14:00 +30°C° 0 mm 6 mps 750 mmHg 28%
15:00 +30°C° 0 mm 6 mps 750 mmHg 27%
16:00 +29°C° 0 mm 5 mps 750 mmHg 30%
17:00 +28°C° 0 mm 5 mps 750 mmHg 32%
18:00 +27°C° 0 mm 4 mps 750 mmHg 34%
19:00 +25°C° 0 mm 4 mps 750 mmHg 40%
20:00 +22°C° 0 mm 3 mps 751 mmHg 46%
21:00 +20°C° 0 mm 3 mps 751 mmHg 53%
22:00 +19°C° 0 mm 3 mps 751 mmHg 58%
23:00 +18°C° 0 mm 3 mps 751 mmHg 64%
Show more

We Need Your Consent

Meteoprog and our Service Providers may store and access personal data such as cookies, device identifiers or other similar technologies on your device and process such data to personalise content and ads, as well as provide social media features and to analyse the traffic.

  • Store and/or access information on your device

    Cookies, device identifiers or other information can be stored or accessed on your device for the purposes indicated above.

  • Personalised ads and content, ad and content measurement, audience insights, and products development

    Ads and content can be personalised based on a profile. More data can be added to better personalise ads and content. Ad and content performance can be measured. Insights about the audience who saw the ads and content can be derived. Such data can be used to develop or improve user’s experience, systems and software.

By clicking ‘I Agree’ you will allow the use of indicated cookies, device identifiers, web beacons or other similar technologies. Your settings can be changed in the browser on your device.

For certain purposes, legitimate interests may be relied on, rather than consent. You can read more about this in our Privacy and Cookie Policy.